Regional Weather Roundup
Issued by NWS Grand Forks, ND

Home | Current Version | Previous Version | Text Only | Print | Product List | Glossary Off
Versions: 1 2 3 4 5 6 7 8 9 10 11 12 13 14 15 16 17 18 19 20 21 22 23 24 25 26 27 28 29 30 31 32 33 34 35 36 37 38 39 40 41 42 43 44 45 46 47 48 49 50

000
ASUS43 KFGF 221931
RWRFGF
PRAIRIE TO PINES  WEATHER ROUNDUP
NATIONAL WEATHER SERVICE EASTERN NORTH DAKOTA/GRAND FORKS ND
200 PM CDT FRI MAY 22 2015

 **SATELLITE DATA USED TO AUGMENT SKY COVER AT AUTOMATED STATIONS**
 *****  WEATHER ACROSS EASTERN NORTH DAKOTA  *****

CITY           SKY/WX    TMP DP  RH WIND       PRES   REMARKS
GRAND FORKS    SUNNY     75  37  25 S8        30.15F
GRAND FRKS AFB SUNNY     76  38  25 SW8G16    30.16F
GRAND FRKS NWS   N/A     72 N/A N/A SW13        N/A
DEVILS LAKE    SUNNY     73  36  25 S16       30.15S
FARGO          SUNNY     72  40  31 VRB7      30.18F
WAHPETON ARPT  CLEAR     72  32  23 E6        30.19F
$$

 ***** WEATHER ACROSS CENTRAL AND WESTERN NORTH DAKOTA  *****

CITY           SKY/WX    TMP DP  RH WIND       PRES   REMARKS
BISMARCK       SUNNY     74  36  25 S10G22    30.13F
MINOT          SUNNY     75  33  21 S12G21    30.11F
JAMESTOWN      SUNNY     73  38  27 S12G18    30.16F
MINOT AFB      SUNNY     77  34  20 S13       30.09F
GARRISON         N/A     74  32  21 S13       30.12F
WILLISTON      SUNNY     75  31  19 SE16G28   30.08F
DICKINSON      SUNNY     70  33  25 SE22G36   30.08F
HETTINGER      MOSUNNY   69  32  25 SE25G32   30.10F
$$

 *****  OTHER AIRPORT OBSERVATIONS IN OUR AREA  *****

CITY           SKY/WX    TMP DP  RH WIND       PRES   REMARKS
WALHALLA       FAIR      77  36  22 NW7       30.11S
GRAFTON AIRPOR FAIR      75  41  29 S7G16     30.14F
VALLEY CITY AR FAIR      73  37  27 SE12      30.18S
CANDO          FAIR      75  32  20 S15G21    30.15R
CAVALIER APRT  FAIR      77  39  25 SW14G20   30.11F
GWINNER        NOT AVBL
ROLLA            N/A     75  32  20 SW9G18    30.14F
 ***** THE ABOVE OBSERVATIONS ARE NON NWS ARE NOT QUALITY
       CONTROLLED AND MAY MIS-REPORT RAIN FOR SNOW...
$$

  *****  WEATHER ACROSS NORTHERN MINNESOTA  *****

CITY           SKY/WX    TMP DP  RH WIND       PRES   REMARKS
FLAG ISLAND    SUNNY     57  45  62 S13       30.10F
WARROAD        SUNNY     73  45  35 SW9G16    30.13S
ROSEAU         SUNNY     73  43  33 SW12G17   30.13S
HALLOCK        SUNNY     75  39  27 SW14G20   30.12F
THF RVR FALLS  SUNNY     73  36  25 SW8       30.17S
BAUDETTE       SUNNY     73  37  27 MISG      30.13F
WASKISH        SUNNY     70  39  32 SW8       30.17F
CROOKSTON      SUNNY     73  36  25 SW12      30.17F
STEPHEN NDAWN    N/A     75  39  27 SW12        N/A
GREENBUSH NDAW   N/A     73  43  33 SW12        N/A
$$
  *****  WEATHER ACROSS CENTRAL AND WEST MINNESOTA  *****

CITY           SKY/WX    TMP DP  RH WIND       PRES   REMARKS
FOSSTON        SUNNY     73  34  23 CALM      30.19S
BEMIDJI        SUNNY     72  34  25 S8        30.17F
PARK RAPIDS    SUNNY     73  30  20 CALM      30.19F
ELBOW LAKE     FAIR      71  38  29 S8        30.19F
WADENA         SUNNY     70  37  30 SW3       30.20F
DETROIT LAKES  SUNNY     70  34  26 SW5       30.21S
MOORHEAD       SUNNY     72  36  26 SE6       30.19F
FERGUS FALLS   SUNNY     72  36  26 E3        30.20S
MORRIS MN      SUNNY     73  36  25 S6        30.20S HAZE
STAPLES        SUNNY     70  32  24 S9        30.21S
$$
  *****  WEATHER ELSEWHERE ACROSS MINNESOTA  *****

CITY           SKY/WX    TMP DP  RH WIND       PRES   REMARKS
DULUTH         SUNNY     69  33  26 VRB3      30.19S
INTRNTL FALLS  SUNNY     71  31  22 VRB6      30.14F
ELY            SUNNY     66  27  22 W7        30.16F
CLOQUET        SUNNY     70  25  18 W8        30.19F
WHEATON        SUNNY     70  32  24 CALM      30.21S
BRAINERD       SUNNY     69  34  27 VRB7      30.21S
HIBBING        SUNNY     69  30  23 VRB6      30.18S
ALEXANDRIA     SUNNY     68  34  28 S5        30.23S
SAINT CLOUD    SUNNY     70  33  25 VRB3      30.22S
MINNEAPOLIS    SUNNY     72  34  24 N5        30.22S
$$

  *****  WEATHER ACROSS SOUTH DAKOTA  *****

CITY           SKY/WX    TMP DP  RH WIND       PRES   REMARKS
SIOUX FALLS    CLOUDY    72  40  31 VRB3      30.18F
BROOKINGS      MOSUNNY   72  34  25 SE6       30.19S
WATERTOWN      SUNNY     74  36  25 VRB5      30.19F
HURON          SUNNY     75  38  26 S9G20     30.16F
SISSETON         N/A     73  31  21 SE8       30.18F
ABERDEEN       PTSUNNY   77  35  21 MISG      30.15F
MITCHELL       PTSUNNY   74  40  29 S10       30.17F
PIERRE         PTSUNNY   71  38  29 SE18G31   30.12F
MOBRIDGE       MOSUNNY   76  35  22 SE20      30.11F
RAPID CITY     CLOUDY    59  44  57 S17       30.08F
$$

  *****  SOME WEATHER IN NEARBY STATES *****

CITY           SKY/WX    TMP DP  RH WIND       PRES   REMARKS
GLASGOW MT     SUNNY     73  38  27 SE18G31   30.00F
GREAT FALLS MT SUNNY     66  38  35 CALM      29.94F
CHEYENNE WY    LGT RAIN  44  41  89 SE13      30.04S FOG
SCOTTSBLUFF NE CLOUDY    51  32  48 SE18G26   30.07S
OMAHA NE       CLOUDY    70  39  32 SW10      30.22F
DES MOINES IA  CLOUDY    75  37  25 SW3       30.21F
DAVENPORT IA   SUNNY     75  32  20 W7        30.20F
CHICAGO IL     MOSUNNY   65  29  25 E9        30.24S
EAU CLAIRE WI  SUNNY     69  32  25 CALM      30.22S
LA CROSSE WI   SUNNY     74  37  26 VRB5      30.21S
$$

  *****  SOME NATIONAL WEATHER *****

CITY           SKY/WX    TMP DP  RH WIND       PRES   REMARKS
LA GUARDIA NY  PTSUNNY   72  38  29 NW18G29   29.90S
RALEIGH NC     MOSUNNY   72  44  36 N6        30.20S
ATLANTA GA     MOSUNNY   74  51  44 NE7       30.20F
NEW ORLEANS LA MOSUNNY   78  64  61 N9        30.16R
OKLAHOMA CITY  LGT RAIN  57  54  89 SE13      30.17S
ALBUQUERQUE NM MOSUNNY   64  43  46 S5        30.06F
SALT LAKE CITY CLOUDY    62  40  44 SW6       29.89F
LOS ANGELES CA PTSUNNY   62  50  64 SW13      30.04R
BOISE ID       MOSUNNY   67  49  52 SW3       29.87F
SEATTLE WA     CLOUDY    60  50  69 SW9       30.00S
$$

*** WEATHER ACROSS MANITOBA...SASKATCHEWAN AND ONTARIO ***
                ***ONTARIO***

CITY           SKY/WX    TMP DP  RH WIND       PRES   REMARKS
GERALDTON      SUNNY     52  16  24 NW7       30.17F
THUNDER BAY    SUNNY     59  30  33 VRB10     30.19F
SIOUX LOOKOUT  MOSUNNY   66  32  28 S8        30.10F
TORONTO        MOSUNNY   57  30  35 N18G25    30.11R
BIG TROUT LK   SUNNY     57  18  21 S6        30.02F
PICKLE LAKE    MOSUNNY   61  21  21 S12       30.08F
DRYDEN         SUNNY     68  32  26 SW10G21   30.10F
KENORA         MOSUNNY   68  37  32 MISG      30.10
$$
                *** MANITOBA***

CITY           SKY/WX    TMP DP  RH WIND       PRES   REMARKS
BRANDON        MOSUNNY   77  37  24 SW12G24   30.10F
DAUPHIN        NOT AVBL
ISLAND LAKE    PTSUNNY   68  36  30 S9        29.90F
PILOT MOUND      N/A     77  32  19 SW7         N/A
THE PAS        PTSUNNY   79  30  17 W13       29.95F
THOMPSON       MOSUNNY   73  36  25 VRB9      29.90S
WINNIPEG       MOSUNNY   79  41  25 W10       30.07F
LYNN LAKE      SUNNY     77  32  19 N5        29.92F
CHURCHILL      CLOUDY    36  34  93 N17       29.95R FOG
GILLAM         SUNNY     63  37  39 N6        29.88F
$$
                ***SASKATCHEWAN***

CITY           SKY/WX    TMP DP  RH WIND       PRES   REMARKS
ESTEVAN        MOSUNNY   75  30  19 SE15G21   30.09F
KINDERSLEY     MOSUNNY   75  28  17 S15G24    30.03F
LLOYDMINSTER   MOSUNNY   75  25  15 S8G20     30.02F
PRINCE ALBERT  MOSUNNY   77  32  19 W7        30.02
REGINA         MOSUNNY   75  30  19 S6        30.07F
YORKTON        PTSUNNY   75  27  16 SW10      30.07F
N. BATTLEFORD  SUNNY     77  25  14 S15G24    30.04F
LA RONGE       MOSUNNY   79  27  14 S14       29.95F
SASKATOON      MOSUNNY   77  32  19 S9        30.06F
SWIFT CURRENT  SUNNY     72  28  20 SE24G31   30.04F
$$
NOTE: THESE ARE AUTOMATED STATIONS WITH LIMITED QUALITY CONTROL
      "FAIR" INDICATES FEW OR NO CLOUDS BELOW 12,000 FEET WITH NO
      SIGNIFICANT WEATHER AND/OR OBSTRUCTIONS TO VISIBILITY.
      SKY/WX - SKY CONDITION AND SIGNIFICANT WEATHER.
      TMP - AIR TEMPERATURE.    DP   - DEWPOINT TEMPERATURE.
      RH  - RELATIVE HUMIDITY.  PRES - PRESSURE.
      HX  - HEAT INDEX.         WCI  - WIND CHILL INDEX.
$


USA.gov is the U.S. government's official web portal to all federal, state and local government web resources and services.